Location: Central Falls
(41.8900°N, 71.3929°W)
Time: 12:28:26
(UTC+00:00)

A-11 Canister half - Pass Details

Date: 08 December 2023
Orbit: 1526 x 1682 km, 47.3° (Epoch: 20 February)

Event Time Altitude Azimuth Distance (km) Brightness Sun altitude
Rises 20:51:11 0° 196° (SSW) 4,880 12.5 2.8°
Reaches altitude 10° 20:54:50 10° 186° (S) 3,910 11.8 2.2°
Maximum altitude 21:03:06 30° 130° (SE) 2,670 10.2 1.0°
Drops below altitude 10° 21:11:25 10° 74° (ENE) 3,942 10.5 -0.4°
Enters shadow 21:14:46 - 65° (ENE) 4,840 10.9 -0.9°
Sets 21:15:04 0° 65° (ENE) 4,925 - -0.9°
